星链-36211(STARLINK-36211)

导读

STARLINK-36211是美国太空探索技术公司SpaceX星链星座的卫星,于2025年12月17日发射升空,属于星链组网补充卫星,依托星链系统提供全球低延迟、宽带互联网服务,覆盖偏远地区、支持移动场景网络连接,服务地面通信、航运航空等多领域,进一步扩充了星链低轨卫星星座规模。

Basic Information
目录编号:
67218
目录名称:
STARLINK-36211
国际标识:
2025-304AC
轨道中心:
EARTH
卫星名称:
星链-36211
卫星全名:
星链-36211(STARLINK-36211)
卫星状态:
在轨 (已飞行262 天)
发射日期:
2025-12-17 UTC
国别 :
美国 (US)
星等 :
--
Orbit Information
数据来源 国际轨道数据
星历时间: 2026-09-05T03:06:45+0800
1天前
查看轨道信息
半长轴: 6950.187km
偏心率: 0.0002245
轨道倾角: 70.001°
近地点辐角 266.487°
升交点赤经 82.840°
平近点角 93.604°
近地点: 570.489km
远地点: 573.611km
周期: 96.107分钟
每日圈数: 14.983321
Detailed Information
固有亮度:
5
最大亮度:
2.5
卫星平台:
Starlink V1.0
覆盖范围:
全球
运营商:
太空探索技术公司
运营商所在国:
美国
制造商(研发单位):
太空探索技术公司
制造商所在国:
美国
使用方式:
暂无
Satellite Introduction
Starlink 计划是 SpaceX 推出的全球卫星互联网项目,通过发射低轨道卫星,为全球尤其是偏远地区提供高速、低延迟的互联网服务。自 2019 年起,Starlink 已部署数千颗卫星,旨在缩小全球数字鸿沟,推动互联网普及。该项目还为军事、航空等行业提供通信支持,带来广泛经济效益。
2D Orbit Map
3D Orbit Map
Orbit Altitude Analysis Chart
Orbit Inclination Analysis Chart
Orbit Comprehensive Analysis Chart
View Comprehensive Chart
Conjunction Data List
Event ID Objects TCA Miss Dist (km) Collision Risk Probability Collision Risk Index (CRI) Action
CDM_260906-041202-950606-721823
2026-09-06T
04:12:54+0000
2.923 km
极远距离
1.385769E-6 低风险 0.38